MST,Max TemperatureF,Mean TemperatureF,Min TemperatureF,Max Dew PointF,MeanDew PointF,Min DewpointF,Max Humidity, Mean Humidity, Min Humidity, Max Sea Level PressureIn, Mean Sea Level PressureIn, Min Sea Level PressureIn, Max VisibilityMiles, Mean VisibilityMiles, Min VisibilityMiles, Max Wind SpeedMPH, Mean Wind SpeedMPH, Max Gust SpeedMPH,PrecipitationIn, CloudCover, Events, WindDirDegrees
2012-11-1,39,36,33,36,33,32,93,89,79,30.07,29.93,29.84,10,5,0,31,20,37,0.00,8,Fog,126
2012-11-2,50,42,33,41,34,30,93,83,68,30.18,30.01,29.88,10,8,2,20,10,28,0.08,8,Rain-Snow,290
2012-11-3,44,37,32,34,31,28,89,82,70,30.22,30.16,30.09,10,10,5,15,7,,0.00,6,,70
2012-11-4,55,42,30,41,32,27,93,79,49,30.29,30.16,30.03,10,9,0,26,11,33,0.02,4,Fog-Rain,309
2012-11-5,61,44,28,45,33,25,96,74,44,30.25,30.07,29.88,,,,28,7,40,0.04,4,Rain,269
2012-11-6,51,40,30,29,26,23,82,63,33,30.26,30.17,30.05,,,,16,8,22,0.00,1,,268
2012-11-7,69,51,33,35,29,24,70,54,22,30.01,29.84,29.70,10,10,10,28,11,38,0.00,1,,170
2012-11-8,42,37,30,32,28,25,85,75,65,30.12,30.03,29.90,10,10,10,25,13,33,0.00,7,,25
2012-11-9,30,28,26,27,25,22,93,88,81,29.97,29.80,29.69,10,5,1,30,21,39,0.28,8,Rain-Snow,101
2012-11-10,26,14,3,22,12,-2,88,80,73,30.06,29.84,29.71,10,6,0,25,12,30,0.08,7,Fog-Snow,341
2012-11-11,12,8,3,5,2,-2,80,75,67,30.23,30.03,29.89,10,6,2,25,19,36,0.00,7,Snow,284
2012-11-12,28,14,1,16,11,-4,77,68,58,30.27,30.24,30.22,10,10,10,21,9,,0.00,0,,271
2012-11-13,39,32,26,27,23,17,73,66,60,30.23,30.21,30.17,10,10,10,15,9,,0.00,4,,241
2012-11-14,43,34,25,27,24,19,81,67,51,30.27,30.15,30.07,10,10,10,13,9,,0.00,1,,257
2012-11-15,45,32,18,30,23,14,88,74,53,30.43,30.33,30.18,10,10,10,18,7,,0.00,0,,177
2012-11-16,50,36,21,28,25,18,85,70,39,30.11,30.05,29.99,10,10,10,12,5,,0.00,1,,134
2012-11-17,55,44,33,31,28,24,79,63,37,30.07,30.01,29.92,10,10,10,17,4,,0.00,3,,162
2012-11-18,57,44,30,35,29,24,78,67,44,30.06,29.90,29.78,10,10,10,15,8,,0.00,1,,260
2012-11-19,54,40,26,31,25,21,82,61,31,30.17,30.10,30.01,10,10,10,17,7,,0.00,0,,153
2012-11-20,61,44,26,31,28,22,84,58,31,30.01,29.93,29.81,10,10,10,13,6,,0.00,0,,160
2012-11-21,64,47,30,37,32,26,82,64,28,29.83,29.74,29.60,10,10,10,15,4,,0.00,1,,256
2012-11-22,42,27,12,34,18,6,86,74,60,30.61,30.19,29.79,10,8,2,29,18,41,0.00,6,Snow,303
2012-11-23,37,23,9,23,14,3,81,68,54,30.62,30.41,30.08,10,10,10,16,8,,0.00,1,,148
2012-11-24,44,34,24,35,26,18,86,74,53,30.06,29.98,29.92,10,10,10,15,7,,0.00,5,Rain,282
2012-11-25,32,24,15,27,19,11,93,83,74,30.35,30.11,29.98,10,9,0,16,5,23,0.00,6,Fog,327
2012-11-26,37,26,14,23,18,10,85,75,52,30.43,30.32,30.18,10,10,10,16,9,20,0.00,4,,249
2012-11-27,34,24,15,21,17,11,85,75,56,30.28,30.21,30.15,10,10,10,9,3,,0.00,0,,235
2012-11-28,44,32,19,23,17,13,81,67,37,30.20,30.09,30.01,10,10,10,12,5,,0.00,0,,132
2012-11-29,37,30,23,23,20,17,81,72,55,30.03,29.97,29.92,10,10,10,15,9,,0.00,2,,113
2012-11-30,48,36,24,31,25,20,84,73,52,29.98,29.80,29.68,10,10,10,10,5,,0.00,1,,115